#timestamp,LO_Frequency,Hit,StdDev 
1514642415.5,286047002.6,N
1514642435.4,286047002.6,N
1514642455.2,286047001.4,N
1514642475.1,286047000.0,N
1514642476.0,286047000.0,N
1514642495.8,286047001.8,N
1514642515.6,286047001.1,N
1514642535.5,286046999.3,N
1514642555.3,286046998.8,N
1514642575.1,286047000.7,N
1514642595.9,286047000.0,N
1514642615.7,286046999.7,N
1514642635.6,286047002.8,N
1514642655.4,286047002.3,N
1514642675.2,286047000.2,N
1514642695.1,286047000.0,N
1514642696.0,286047000.0,N
1514642715.8,286047000.4,N
1514642735.7,286046999.3,N
1514642755.5,286046998.8,N
1514642775.3,286047001.1,N
1514642795.2,286046998.2,N
1514642815.0,286047000.8,N
1514642815.9,286047000.8,N
1514642835.8,286046998.3,N
1514642855.6,286046999.3,N
1514642875.4,286046999.1,N
1514642895.3,286047000.7,N
1514642915.1,286047000.9,N
1514642935.9,286047000.2,N
1514642955.7,286046998.9,N
1514642975.5,286046999.6,N
1514642995.4,286046996.7,Y
1514643015.2,286046998.3,P
1514643035.0,286046999.9,N
1514643036.0,286046999.9,N
1514643055.8,286047000.4,N
1514643075.6,286047000.7,N
1514643095.5,286047002.1,N
1514643115.3,286047001.8,N
1514643135.1,286047002.5,N
1514643155.9,286047002.8,N
1514643175.7,286047003.3,N
1514643195.6,286047003.4,N
1514643215.4,286047002.0,N
1514643235.2,286047002.3,N
1514643255.1,286047001.1,N
1514643256.0,286047001.1,N
1514643275.8,286047000.9,N
1514643295.6,286047000.0,N
1514643315.5,286046998.1,N
1514643335.3,286046998.5,N
1514643355.2,286046999.1,N
1514643375.9,286046998.0,N
1514643395.7,286046999.4,N
1514643415.6,286046999.5,N
1514643435.4,286046998.7,N
1514643455.3,286046998.6,N
1514643475.1,286047000.6,N
1514643476.0,286047000.6,N
1514643495.8,286046997.0,N
1514643515.7,286046997.5,N
1514643535.5,286046999.3,N
1514643555.4,286047000.0,N
1514643575.2,286047000.4,N
1514643595.0,286047000.7,N
1514643595.9,286047000.7,N
1514643615.8,286046998.5,N
1514643635.6,286047001.2,N
1514643655.4,286047000.7,N
1514643675.3,286047000.0,N
1514643695.1,286047000.5,N
1514643715.9,286046999.8,N
1514643735.7,286047002.2,N
1514643755.5,286047001.8,N
1514643775.4,286047003.6,N
1514643795.2,286047003.8,N
1514643815.1,286047001.4,N
1514643816.0,286047001.4,N
1514643835.8,286047002.2,N
1514643855.6,286047002.4,N
1514643875.5,286047000.5,N
1514643895.3,286046999.9,N
1514643915.1,286047000.1,N
1514643935.9,286046999.7,N
1514643955.7,286047001.3,N
1514643975.6,286047006.0,Y
1514643995.4,286047003.9,P
1514644015.2,286047007.0,P
1514644035.1,286047007.2,N
1514644036.0,286047007.2,N
1514644055.8,286047004.7,N
1514644075.7,286047004.5,N
1514644095.5,286047006.8,Y
1514644115.3,286047004.3,P
1514644135.2,286046999.8,N
1514644155.0,286047002.6,N
1514644155.9,286047002.6,N
1514644175.8,286047001.1,N
1514644195.6,286046998.8,N
1514644215.4,286046996.6,N
1514644235.3,286046997.1,N
1514644255.1,286046999.1,N
1514644275.9,286047001.1,N
1514644295.7,286047001.4,N
1514644315.5,286047004.2,N
1514644335.4,286047002.3,N
1514644355.2,286047000.6,N
1514644375.0,286046996.5,N
1514644375.9,286046996.5,N
1514644395.8,286046995.1,N
1514644415.6,286046996.8,N
1514644435.5,286046996.8,N
1514644455.3,286046997.6,N
1514644475.1,286046996.4,N
1514644495.9,286046996.4,N
1514644515.7,286046993.7,N
1514644535.6,286046996.2,N
1514644555.4,286046993.7,N
1514644575.2,286046991.9,N
1514644595.1,286046991.0,N
1514644596.0,286046991.0,N
1514644615.8,286046987.1,Y
1514644635.7,286046988.6,P
1514644655.5,286046993.2,N
1514644675.3,286046994.5,N
1514644695.2,286046994.7,N
1514644715.0,286046992.6,N
1514644715.9,286046992.6,N
1514644735.7,286046993.5,N
1514644755.6,286046993.7,N
1514644775.4,286046992.2,Y
1514644795.3,286046997.4,P
1514644815.1,286047000.8,N
1514644835.8,286047002.8,N
1514644855.7,286047000.5,N
1514644875.5,286046998.2,N
1514644895.4,286046998.8,N
1514644915.2,286047000.6,N
1514644935.0,286047001.2,N
1514644935.9,286047001.2,N
1514644955.8,286046999.6,N
1514644975.6,286046996.5,N
1514644995.5,286046999.7,N
1514645015.3,286047002.3,N
1514645035.1,286047002.0,N
1514645055.9,286046999.7,N
1514645075.7,286047001.7,N
1514645095.5,286047003.3,N
1514645115.4,286047003.4,N
1514645135.2,286047005.2,N
1514645155.1,286047006.0,N
1514645156.0,286047006.0,N
1514645175.8,286047003.5,N
1514645195.6,286047003.3,N
1514645215.5,286047002.9,N
1514645235.3,286047004.5,N
1514645255.2,286047006.3,N
1514645275.9,286047003.4,N
1514645295.7,286047005.2,N
1514645315.6,286047003.0,N
1514645335.4,286047004.8,N
1514645355.2,286047005.3,N
1514645375.1,286047005.2,N
1514645376.0,286047005.2,N
1514645395.8,286047005.4,N
1514645415.7,286047005.3,N
1514645435.5,286047007.1,N
1514645455.3,286047005.0,N
1514645475.2,286047007.2,Y
1514645495.0,286047002.8,P
1514645495.9,286047002.8,P
1514645515.8,286047001.1,P
1514645535.6,286046999.7,N
1514645555.4,286047000.8,N
1514645575.3,286047000.8,N
1514645595.1,286047000.5,N
1514645615.9,286047000.5,N
1514645635.7,286047000.4,N
1514645655.5,286047004.4,Y
1514645675.4,286047001.6,P
1514645695.2,286047004.2,P
1514645715.1,286047003.5,N
1514645716.0,286047003.5,N
1514645735.8,286047004.2,Y
1514645755.6,286047001.9,P
1514645775.5,286047002.2,P
1514645795.3,286047002.8,P
1514645815.2,286046999.9,N
1514645835.9,286047001.8,N
1514645855.7,286047000.4,N
1514645875.6,286047004.2,Y
1514645895.4,286047004.0,P
1514645915.2,286047006.0,P
1514645935.1,286047000.1,N
1514645936.0,286047000.1,N
1514645955.8,286047000.0,N
1514645975.7,286047000.3,N
1514645995.5,286047000.1,N
